sat.trackr.live / text

‹ back to catalog

STARLINK-5093

NORAD 56332 · 2023-058R

PAYLOAD ACTIVE UNKNOWN

§ Identity

Operator
Country
US
Launch date
2023-04-27
Launch site
AFWTR
Launch vehicle
Mass (kg)
RCS (m²)

Purposes: comms

External: N2YO · Heavens-Above · Gunter

§ Orbital elements

Epoch: 2026-05-24T23:33:36.260352Z

Period
95.64 min
Inclination
97.4447°
Eccentricity
0.0001692
Mean motion
15.05708493 rev/d
Perigee alt
548.2 km
Apogee alt
550.5 km
Semi-major
6,927.5 km
B*
-8.0613e-4
RAAN
144.9429°
Arg perigee
68.6703°
Mean anomaly
291.4704°
Rev number
16,960

§ Raw data

STARLINK-50931 56332U 23058R   26144.98166968 -.00011689  00000+0 -80613-3 0  99942 56332  97.4447 144.9429 0001692  68.6703 291.4704 15.05708493169608

JSON: /api/v1/satellites/56332 · /tle

For live sub-satellite position, see the globe view (requires WebGL).

§ Visibility from observer

Set your observer location to see the next 7 days of passes ≥ 10°. The values pass through the URL so the page stays shareable.

No JS? Fill the form by hand. The geolocation button needs JavaScript.